GW5620 Weather Reports


Display with metric or nautical units.
time (UTC)temp
F
wind
direction
speed
MPH
gust
MPH
rain 1hr
in
rain 24hr
in
rain mn
in
humidity
%
barometer
mb
20260507130507 53 328 0.0 3.0 0.00 0.18 0.00 52 1012.5
20260507130007 53 338 0.0 0.0 0.00 0.19 0.00 54 1012.5
20260507125507 52 319 0.0 0.0 0.00 0.20 0.00 54 1012.5
20260507125007 52 309 0.0 0.0 0.00 0.20 0.00 55 1012.5
20260507124506 52 21 0.0 0.0 0.00 0.21 0.00 56 1012.4
20260507124007 52 334 0.0 0.0 0.00 0.21 0.00 55 1012.4
20260507123506 52 333 0.0 0.0 0.00 0.22 0.00 54 1012.3
20260507123006 51 26 0.0 0.0 0.00 0.22 0.00 55 1012.2
20260507122507 51 359 0.0 0.0 0.00 0.22 0.00 56 1012.2
20260507121506 51 315 0.0 0.0 0.00 0.22 0.00 56 1012.2
20260507121007 51 328 0.0 0.0 0.00 0.22 0.00 56 1012.2
20260507120007 51 332 0.0 0.0 0.00 0.23 0.00 57 1012.2
20260507115507 51 332 0.0 0.0 0.00 0.23 0.00 57 1012.2
20260507115007 51 5 0.0 0.0 0.00 0.23 0.00 56 1012.3
20260507114506 51 322 0.0 0.0 0.00 0.23 0.00 57 1012.2
20260507114006 51 328 0.0 0.0 0.00 0.24 0.00 58 1012.3
20260507113506 51 331 0.0 0.0 0.00 0.24 0.00 57 1012.3
20260507113006 51 330 0.0 0.0 0.00 0.24 0.00 57 1012.3
20260507112507 51 5 0.0 0.0 0.00 0.25 0.00 57 1012.2
20260507111507 51 340 0.0 0.0 0.00 0.25 0.00 57 1012.1
20260507111006 51 342 0.0 1.0 0.00 0.26 0.00 58 1012.1
20260507110506 51 313 0.0 0.0 0.00 0.27 0.00 59 1012.1
20260507110006 51 313 0.0 0.0 0.00 0.27 0.00 58 1011.9
20260507105506 51 313 0.0 0.0 0.00 0.27 0.00 59 1011.8
20260507105006 51 313 0.0 0.0 0.00 0.28 0.00 58 1011.7
20260507104506 51 313 0.0 0.0 0.00 0.28 0.00 58 1011.7
20260507104006 51 313 0.0 0.0 0.00 0.28 0.00 58 1011.6
20260507103506 51 313 0.0 0.0 0.00 0.28 0.00 59 1011.6
20260507103006 51 313 0.0 0.0 0.00 0.28 0.00 57 1011.5
20260507102506 51 313 0.0 0.0 0.00 0.28 0.00 57 1011.5
20260507102007 51 313 0.0 0.0 0.00 0.28 0.00 58 1011.4
20260507101507 51 313 0.0 0.0 0.00 0.28 0.00 57 1011.3
20260507101006 51 313 0.0 0.0 0.00 0.28 0.00 57 1011.2
20260507100506 51 345 0.0 0.0 0.00 0.28 0.00 58 1011.2
20260507095505 51 355 0.0 0.0 0.00 0.28 0.00 57 1011.1
20260507095006 51 355 0.0 0.0 0.00 0.28 0.00 57 1011.1
20260507094505 51 355 0.0 0.0 0.00 0.28 0.00 56 1011.1
20260507094006 51 331 0.0 2.0 0.00 0.28 0.00 56 1011.1
20260507093507 51 332 0.0 0.0 0.00 0.28 0.00 57 1011.2
20260507092506 51 331 0.0 0.0 0.00 0.28 0.00 57 1011.2
20260507092006 51 329 0.0 0.0 0.00 0.28 0.00 58 1011.2
20260507091505 51 336 0.0 0.0 0.00 0.28 0.00 59 1011.2
20260507091006 51 313 0.0 0.0 0.00 0.28 0.00 59 1011.0
20260507090507 51 302 0.0 3.0 0.00 0.28 0.00 60 1011.0
20260507090006 51 5 0.0 0.0 0.00 0.28 0.00 61 1010.9
20260507085505 51 5 0.0 0.0 0.00 0.28 0.00 61 1010.9
20260507084506 51 5 0.0 0.0 0.00 0.28 0.00 62 1010.8
20260507084006 51 5 0.0 0.0 0.00 0.28 0.00 62 1010.7
20260507083506 51 5 0.0 0.0 0.00 0.28 0.00 62 1010.7
20260507083006 51 14 0.0 3.0 0.00 0.28 0.00 62 1010.8
20260507082506 51 14 0.0 3.0 0.00 0.28 0.00 62 1010.7
20260507082006 51 14 0.0 3.0 0.00 0.28 0.00 62 1010.7
20260507081505 51 13 2.0 3.0 0.00 0.28 0.00 62 1010.6
20260507080506 52 20 1.0 5.0 0.00 0.28 0.00 63 1010.4
20260507080006 52 5 2.0 5.0 0.00 0.28 0.00 66 1010.3
20260507075506 52 10 3.0 8.0 0.00 0.28 0.00 67 1010.3
20260507074505 52 23 0.0 0.0 0.00 0.28 0.00 70 1010.3
20260507074006 52 10 0.0 0.0 0.00 0.28 0.00 71 1010.4
20260507073505 52 23 1.0 8.0 0.00 0.28 0.00 72 1010.4
20260507073005 52 6 2.0 6.0 0.00 0.28 0.00 73 1010.3
20260507072006 53 342 0.0 0.0 0.00 0.28 0.00 76 1010.6
20260507071505 53 342 0.0 0.0 0.00 0.28 0.00 76 1010.5
20260507070505 53 342 0.0 0.0 0.00 0.28 0.00 75 1010.5
20260507070009 53 342 0.0 1.0 0.00 0.28 0.00 75 1010.6
20260507065505 53 342 0.0 2.0 0.00 0.28 0.00 75 1010.7
20260507064505 53 339 0.0 0.0 0.00 0.28 0.00 75 1010.6
20260507064005 53 339 0.0 0.0 0.00 0.28 0.00 74 1010.6
20260507063505 53 333 0.0 0.0 0.00 0.28 0.00 74 1010.6
20260507062505 53 328 0.0 0.0 0.00 0.28 0.00 73 1010.5
20260507061505 53 326 0.0 0.0 0.00 0.28 0.00 73 1010.6
20260507061005 53 325 0.0 0.0 0.00 0.28 0.00 73 1010.7
20260507060505 54 333 0.0 0.0 0.00 0.28 0.00 73 1010.8
20260507060005 54 340 1.0 3.0 0.00 0.28 0.00 73 1010.7
20260507055504 54 338 1.0 3.0 0.00 0.28 0.00 74 1010.6
20260507054505 54 305 0.0 8.0 0.00 0.28 0.00 73 1010.4
20260507054005 54 300 0.0 5.0 0.00 0.28 0.00 73 1010.4
20260507053505 54 327 1.0 3.0 0.00 0.28 0.00 73 1010.4
20260507053005 54 328 2.0 6.0 0.00 0.28 0.00 73 1010.4
20260507052505 54 332 2.0 5.0 0.00 0.28 0.00 74 1010.3
20260507051505 54 10 2.0 8.0 0.00 0.28 0.00 75 1010.3
20260507051005 54 336 3.0 6.0 0.00 0.28 0.00 75 1010.2
20260507050505 54 341 2.0 3.0 0.00 0.28 0.00 76 1010.1
20260507050005 54 317 1.0 9.0 0.00 0.28 0.00 76 1010.3
20260507045504 54 351 1.0 3.0 0.00 0.28 0.00 77 1010.4
20260507045005 54 353 1.0 3.0 0.00 0.28 0.00 77 1010.2
20260507044505 54 12 3.0 6.0 0.00 0.28 0.00 78 1010.2
20260507044005 54 344 1.0 3.0 0.00 0.28 0.00 79 1010.2
20260507042504 54 355 0.0 0.0 0.00 0.28 0.00 79 1010.5
20260507042004 54 355 1.0 3.0 0.00 0.28 0.00 79 1010.3
20260507041505 54 348 2.0 5.0 0.00 0.28 0.00 80 1010.3
20260507041004 54 349 1.0 6.0 0.00 0.28 0.00 81 1010.1
20260507040506 55 328 1.0 3.0 0.00 0.28 0.00 81 1010.2
20260507040004 55 318 2.0 5.0 0.00 0.28 0.00 82 1010.6
20260507035005 55 330 1.0 3.0 0.00 0.28 0.28 81 1010.3
20260507034505 55 332 0.0 1.0 0.00 0.28 0.28 81 1010.0
20260507033505 55 332 1.0 5.0 0.00 0.28 0.28 81 1009.9
20260507033005 55 324 1.0 3.0 0.00 0.28 0.28 80 1010.0
20260507032504 55 327 0.0 3.0 0.00 0.28 0.28 80 1010.0
20260507032005 55 331 1.0 3.0 0.00 0.28 0.28 80 1010.0
20260507031504 55 319 3.0 8.0 0.00 0.28 0.28 79 1010.1
20260507031004 55 335 2.0 8.0 0.00 0.28 0.28 79 1010.3
20260507030004 56 359 5.0 14.0 0.00 0.28 0.28 79 1010.1
20260507025504 56 318 5.0 9.0 0.00 0.28 0.28 79 1010.1
20260507025004 56 326 3.0 9.0 0.00 0.28 0.28 79 1010.2
20260507024504 56 317 4.0 9.0 0.00 0.28 0.28 79 1010.0
20260507024004 56 356 3.0 9.0 0.00 0.28 0.28 79 1009.8
20260507023504 56 26 2.0 5.0 0.00 0.28 0.28 79 1009.8
20260507023004 57 299 2.0 5.0 0.00 0.28 0.28 79 1009.8
20260507022504 57 314 2.0 5.0 0.00 0.28 0.28 79 1010.0
20260507022004 57 334 1.0 3.0 0.00 0.28 0.28 79 1009.7
20260507021504 57 337 2.0 5.0 0.00 0.28 0.28 79 1009.8
20260507021004 57 315 2.0 5.0 0.00 0.28 0.28 79 1009.8
20260507020504 57 325 1.0 6.0 0.00 0.28 0.28 78 1009.8
20260507020004 57 314 3.0 6.0 0.00 0.28 0.28 79 1009.7
20260507014004 58 333 1.0 10.0 0.00 0.28 0.28 78 1009.3
20260507013504 58 337 3.0 8.0 0.00 0.28 0.28 78 1009.4
20260507013005 58 347 3.0 9.0 0.00 0.28 0.28 78 1009.5
20260507012504 58 329 2.0 8.0 0.00 0.28 0.28 78 1009.5
20260507012004 59 329 5.0 12.0 0.00 0.28 0.28 79 1009.4
20260507011004 59 323 2.0 7.0 0.00 0.28 0.28 78 1009.2
20260507010005 59 346 1.0 3.0 0.00 0.28 0.28 79 1009.4
20260507005504 60 327 2.0 7.0 0.00 0.28 0.28 78 1009.6
20260507005004 60 292 0.0 2.0 0.00 0.28 0.28 78 1009.7
20260507004504 60 281 0.0 3.0 0.00 0.28 0.28 78 1009.5
20260507004004 60 282 0.0 5.0 0.00 0.28 0.28 78 1009.5
20260507003504 60 290 0.0 3.0 0.00 0.28 0.28 77 1009.3
20260507003004 60 302 2.0 9.0 0.00 0.28 0.28 77 1009.5
20260507002504 60 298 0.0 0.0 0.00 0.28 0.28 77 1009.5
20260507002004 60 329 2.0 8.0 0.00 0.28 0.28 76 1009.1
20260507001504 60 267 2.0 7.0 0.00 0.28 0.28 76 1009.1
20260507001004 60 292 2.0 7.0 0.00 0.28 0.28 76 1009.0
20260507000505 61 308 0.0 6.0 0.00 0.28 0.28 76 1009.0
20260507000004 61 272 1.0 9.0 0.00 0.28 0.28 77 1009.0
20260506235003 61 309 1.0 3.0 0.00 0.28 0.28 77 1008.7
20260506234503 61 302 1.0 7.0 0.00 0.28 0.28 77 1008.5
20260506233509 61 315 2.0 7.0 0.00 0.28 0.28 77 1008.0
20260506233008 61 310 2.0 5.0 0.00 0.28 0.28 78 1007.8
20260506232508 61 300 3.0 9.0 0.00 0.28 0.28 79 1008.0
20260506232008 61 332 1.0 9.0 0.00 0.28 0.28 80 1008.1
20260506231508 62 323 1.0 6.0 0.00 0.28 0.28 80 1008.0
20260506231009 62 351 3.0 10.0 0.00 0.28 0.28 80 1007.7
20260506230509 62 323 3.0 10.0 0.00 0.28 0.28 81 1007.8
20260506230009 62 310 3.0 10.0 0.00 0.28 0.28 82 1007.8
20260506225508 62 324 1.0 5.0 0.01 0.28 0.28 83 1007.7
20260506225009 62 320 3.0 10.0 0.01 0.28 0.28 84 1007.6
20260506224508 62 322 3.0 10.0 0.01 0.28 0.28 85 1007.6
20260506224009 63 321 5.0 12.0 0.01 0.28 0.28 86 1007.5
20260506223509 64 0 3.0 8.0 0.01 0.28 0.28 88 1007.4
20260506223008 64 337 1.0 3.0 0.02 0.28 0.28 89 1007.3
20260506222508 64 338 1.0 3.0 0.02 0.28 0.28 89 1007.3
20260506222008 64 278 2.0 3.0 0.02 0.28 0.28 88 1007.3
20260506221008 65 292 0.0 1.0 0.02 0.28 0.28 88 1007.0
20260506220508 65 292 0.0 2.0 0.02 0.28 0.28 87 1006.9
20260506220008 65 294 0.0 3.0 0.02 0.28 0.28 87 1007.0
20260506215508 65 300 0.0 2.0 0.01 0.27 0.27 87 1007.0
20260506214508 65 301 1.0 3.0 0.01 0.27 0.27 86 1007.1
20260506213509 65 216 1.0 7.0 0.01 0.27 0.27 86 1006.7
20260506212008 65 236 1.0 5.0 0.00 0.26 0.26 85 1006.6
20260506211507 66 253 1.0 5.0 0.00 0.26 0.26 84 1006.6
20260506211009 66 220 1.0 6.0 0.00 0.26 0.26 84 1006.4
20260506210508 66 259 2.0 8.0 0.00 0.26 0.26 84 1006.3
20260506210007 66 241 2.0 8.0 0.00 0.26 0.26 83 1006.2
20260506205508 66 227 1.0 3.0 0.00 0.26 0.26 83 1006.2
20260506205008 66 239 1.0 7.0 0.00 0.26 0.26 83 1006.1
20260506204507 66 234 1.0 3.0 0.00 0.26 0.26 84 1006.1
20260506204007 67 247 2.0 3.0 0.00 0.26 0.26 84 1006.0
20260506203508 67 196 3.0 8.0 0.00 0.26 0.26 84 1006.0
20260506203008 67 226 0.0 3.0 0.00 0.26 0.26 86 1006.0
20260506202508 67 226 1.0 8.0 0.00 0.26 0.26 86 1005.9
20260506201508 66 205 2.0 9.0 0.00 0.26 0.26 87 1006.0
20260506201008 66 202 2.0 5.0 0.00 0.26 0.26 86 1006.0
20260506200508 66 194 2.0 7.0 0.00 0.26 0.26 87 1006.0
20260506200007 66 212 2.0 5.0 0.00 0.26 0.26 87 1006.0
20260506195508 66 189 2.0 8.0 0.00 0.26 0.26 88 1006.0
20260506194508 66 230 1.0 7.0 0.00 0.26 0.26 88 1006.1
20260506194008 66 218 1.0 5.0 0.00 0.26 0.26 89 1006.1
20260506193508 66 229 0.0 5.0 0.00 0.26 0.26 89 1006.0
20260506193008 66 208 3.0 9.0 0.00 0.26 0.26 89 1006.1
20260506192508 66 215 0.0 0.0 0.00 0.26 0.26 90 1006.1
20260506192008 66 212 0.0 5.0 0.00 0.26 0.26 91 1005.9
20260506191508 66 229 2.0 6.0 0.00 0.26 0.26 91 1005.9
20260506191008 65 247 3.0 7.0 0.01 0.26 0.26 92 1006.0
20260506190509 65 230 0.0 3.0 0.01 0.26 0.26 91 1006.0
20260506190007 64 244 0.0 3.0 0.01 0.26 0.26 91 1006.1
20260506185507 64 259 1.0 8.0 0.01 0.26 0.26 90 1006.1
20260506185007 64 232 2.0 12.0 0.01 0.26 0.26 90 1006.3
20260506184008 64 223 2.0 3.0 0.01 0.26 0.26 89 1006.4
20260506183508 64 212 1.0 5.0 0.01 0.26 0.26 89 1006.5
20260506182507 64 225 0.0 6.0 0.01 0.26 0.26 88 1006.5
20260506182007 64 247 2.0 5.0 0.01 0.26 0.26 87 1006.6
20260506181008 64 268 0.0 5.0 0.00 0.25 0.25 86 1006.6
20260506180508 64 261 2.0 8.0 0.00 0.25 0.25 86 1006.5
20260506175007 64 235 5.0 10.0 0.00 0.25 0.25 85 1006.4
20260506174507 64 231 1.0 3.0 0.00 0.25 0.25 85 1006.3
20260506174007 64 239 2.0 7.0 0.00 0.25 0.25 85 1006.3
20260506173508 64 213 1.0 6.0 0.00 0.25 0.25 85 1006.3
20260506172508 64 274 2.0 8.0 0.00 0.25 0.25 85 1006.3
20260506172007 64 238 1.0 7.0 0.00 0.25 0.25 85 1006.2
20260506171507 64 251 4.0 8.0 0.00 0.25 0.25 85 1006.3
20260506171007 64 199 1.0 8.0 0.00 0.25 0.25 85 1006.3
20260506170507 64 226 1.0 12.0 0.00 0.25 0.25 86 1006.2
20260506170007 63 225 1.0 5.0 0.00 0.25 0.25 86 1006.2
20260506165507 63 175 2.0 9.0 0.00 0.25 0.25 86 1006.2
20260506165008 63 232 2.0 10.0 0.00 0.25 0.25 86 1006.2
20260506164507 63 200 3.0 8.0 0.00 0.25 0.25 86 1006.3
20260506164007 63 186 3.0 8.0 0.00 0.25 0.25 86 1006.3
20260506163507 63 233 3.0 9.0 0.00 0.25 0.25 87 1006.3
20260506163007 63 198 2.0 8.0 0.00 0.25 0.25 87 1006.3
20260506162507 63 231 4.0 10.0 0.00 0.25 0.25 88 1006.3
20260506162007 62 230 3.0 9.0 0.00 0.25 0.25 88 1006.3
20260506161507 62 251 2.0 6.0 0.00 0.25 0.25 88 1006.3
20260506161007 62 242 1.0 10.0 0.00 0.25 0.25 89 1006.2
20260506160507 62 225 3.0 10.0 0.00 0.25 0.25 89 1006.3
20260506160007 62 184 2.0 6.0 0.00 0.25 0.25 89 1006.3
20260506155507 62 203 3.0 9.0 0.00 0.25 0.25 89 1006.3
20260506155007 62 188 1.0 3.0 0.00 0.25 0.25 90 1006.3
20260506154507 61 166 3.0 7.0 0.00 0.25 0.25 89 1006.3
20260506154007 61 187 2.0 12.0 0.00 0.25 0.25 89 1006.4
20260506153507 62 162 2.0 12.0 0.00 0.25 0.25 90 1006.3
20260506153007 62 181 1.0 12.0 0.01 0.25 0.25 90 1006.2
20260506152508 62 197 4.0 9.0 0.01 0.25 0.25 90 1006.3
20260506145507 61 238 1.0 8.0 0.07 0.25 0.25 91 1006.1
20260506145007 61 147 2.0 7.0 0.08 0.25 0.25 91 1006.0
20260506143506 60 175 2.0 3.0 0.13 0.25 0.25 91 1006.5
20260506143007 60 182 1.0 3.0 0.12 0.24 0.24 90 1006.7
20260506142507 60 183 2.0 5.0 0.13 0.24 0.24 90 1006.8
20260506142006 60 232 0.0 7.0 0.12 0.23 0.23 90 1007.0
20260506141507 60 197 1.0 9.0 0.12 0.23 0.23 89 1007.2
20260506141007 60 199 1.0 7.0 0.10 0.21 0.21 89 1007.2
20260506140506 60 237 0.0 7.0 0.10 0.20 0.20 89 1007.2
20260506140006 60 194 0.0 7.0 0.10 0.19 0.19 89 1007.0
20260506135507 60 221 0.0 0.0 0.10 0.18 0.18 89 1007.0
20260506135007 60 206 0.0 6.0 0.09 0.17 0.17 89 1006.6
20260506134506 60 198 0.0 6.0 0.07 0.14 0.14 89 1006.9
20260506133506 61 188 3.0 8.0 0.06 0.12 0.12 89 1006.6
20260506133006 60 217 2.0 8.0 0.06 0.12 0.12 89 1006.6
20260506132506 60 192 3.0 7.0 0.05 0.11 0.11 88 1006.7
20260506132007 60 206 2.0 10.0 0.05 0.11 0.11 88 1006.7
20260506131007 60 217 3.0 7.0 0.05 0.11 0.11 87 1006.7